LPE2137 SPJC-SPRU

Flight info

Callsign LPE2137
Flight time 0h 49m
Altitude 36000
Route TELE2F ISREN UM542 VUGAL VUGAL1
Aircraft A319/M-SDE3FGHIRWY/LB1

Departure

Time 2026-05-08 01:24
Airport Jorge Chávez International Airport (SPJC)

Arrival

Time 2026-05-08 02:13
Airport Capitán FAP Carlos Martínez de Pinillos International Airport (SPRU)
Time Latitude Longitude Altitude Speed Heading
2026-05-08 01:06 -12.03112 -77.11304 85 ft 0 kts 244°
2026-05-08 01:14 -12.03107 -77.11295 87 ft 3 kts 244°
2026-05-08 01:14 -12.03099 -77.11276 85 ft 3 kts 249°
2026-05-08 01:14 -12.03093 -77.11257 89 ft 3 kts 270°
2026-05-08 01:15 -12.03095 -77.11243 86 ft 2 kts 325°
2026-05-08 01:15 -12.03098 -77.11240 91 ft 0 kts 334°
2026-05-08 01:18 -12.03095 -77.11241 86 ft 1 kts 334°
2026-05-08 01:18 -12.03079 -77.11249 90 ft 4 kts 335°
2026-05-08 01:18 -12.03059 -77.11259 87 ft 6 kts 335°
2026-05-08 01:18 -12.03007 -77.11282 82 ft 9 kts 336°
2026-05-08 01:19 -12.02943 -77.11315 82 ft 7 kts 329°
2026-05-08 01:19 -12.02903 -77.11336 83 ft 6 kts 334°
2026-05-08 01:19 -12.02868 -77.11353 82 ft 5 kts 335°
2026-05-08 01:19 -12.02841 -77.11366 85 ft 4 kts 334°
2026-05-08 01:20 -12.02819 -77.11377 83 ft 3 kts 333°
2026-05-08 01:20 -12.02787 -77.11393 85 ft 7 kts 334°
2026-05-08 01:20 -12.02750 -77.11411 83 ft 10 kts 335°
2026-05-08 01:20 -12.02676 -77.11447 82 ft 12 kts 334°
2026-05-08 01:21 -12.02593 -77.11488 83 ft 15 kts 334°
2026-05-08 01:21 -12.02488 -77.11541 81 ft 19 kts 334°
2026-05-08 01:21 -12.02351 -77.11608 82 ft 24 kts 335°
2026-05-08 01:21 -12.02178 -77.11692 70 ft 29 kts 334°
2026-05-08 01:22 -12.02016 -77.11772 69 ft 20 kts 334°
2026-05-08 01:22 -12.01909 -77.11826 61 ft 16 kts 334°
2026-05-08 01:22 -12.01838 -77.11835 66 ft 10 kts 43°
2026-05-08 01:22 -12.01779 -77.11809 60 ft 12 kts 336°
2026-05-08 01:23 -12.01687 -77.11856 66 ft 17 kts 333°
2026-05-08 01:23 -12.01572 -77.11879 66 ft 17 kts 39°
2026-05-08 01:23 -12.01523 -77.11786 64 ft 7 kts 64°
2026-05-08 01:23 -12.01550 -77.11747 63 ft 11 kts 156°
2026-05-08 01:24 -12.01870 -77.11589 67 ft 96 kts 154°
2026-05-08 01:24 -12.02707 -77.11177 210 ft 155 kts 155°
2026-05-08 01:24 -12.03652 -77.10713 1056 ft 151 kts 154°
2026-05-08 01:24 -12.04633 -77.10226 1445 ft 170 kts 155°
2026-05-08 01:25 -12.05767 -77.09666 1713 ft 192 kts 154°
2026-05-08 01:25 -12.07048 -77.09035 1969 ft 217 kts 155°
2026-05-08 01:25 -12.08568 -77.08561 2319 ft 243 kts 178°
2026-05-08 01:25 -12.10248 -77.09026 2899 ft 262 kts 214°
2026-05-08 01:26 -12.11393 -77.10479 3761 ft 270 kts 250°
2026-05-08 01:26 -12.11530 -77.12386 4630 ft 277 kts 283°
2026-05-08 01:26 -12.10680 -77.14162 5452 ft 283 kts 304°
2026-05-08 01:26 -12.09448 -77.15738 6352 ft 285 kts 311°
2026-05-08 01:27 -12.08094 -77.17226 7171 ft 287 kts 314°
2026-05-08 01:27 -12.06706 -77.18711 7956 ft 291 kts 313°
2026-05-08 01:27 -12.05317 -77.20228 8767 ft 294 kts 313°
2026-05-08 01:27 -12.03941 -77.21780 9557 ft 296 kts 311°
2026-05-08 01:28 -12.02566 -77.23372 10203 ft 304 kts 311°
2026-05-08 01:28 -12.01126 -77.25064 10395 ft 328 kts 310°
2026-05-08 01:28 -11.99591 -77.26883 10702 ft 343 kts 310°
2026-05-08 01:28 -11.98026 -77.28748 11264 ft 349 kts 310°
2026-05-08 01:29 -11.96438 -77.30646 11849 ft 353 kts 310°
2026-05-08 01:29 -11.94835 -77.32560 12458 ft 356 kts 310°
2026-05-08 01:29 -11.93216 -77.34489 13046 ft 360 kts 310°
2026-05-08 01:29 -11.91596 -77.36424 13539 ft 366 kts 310°
2026-05-08 01:30 -11.89908 -77.38442 14023 ft 372 kts 310°
2026-05-08 01:30 -11.88241 -77.40433 14505 ft 375 kts 310°
2026-05-08 01:30 -11.86533 -77.42467 15024 ft 378 kts 311°
2026-05-08 01:30 -11.84815 -77.44512 15544 ft 380 kts 311°
2026-05-08 01:31 -11.83085 -77.46564 16065 ft 383 kts 312°
2026-05-08 01:31 -11.81344 -77.48630 16603 ft 385 kts 312°
2026-05-08 01:31 -11.79591 -77.50709 17145 ft 387 kts 312°
2026-05-08 01:31 -11.77706 -77.52665 17681 ft 386 kts 322°
2026-05-08 01:32 -11.75500 -77.54228 18206 ft 386 kts 331°
2026-05-08 01:32 -11.73181 -77.55641 18659 ft 388 kts 331°
2026-05-08 01:32 -11.70856 -77.57063 19107 ft 391 kts 330°
2026-05-08 01:32 -11.68522 -77.58494 19556 ft 393 kts 330°
2026-05-08 01:33 -11.66200 -77.59918 20000 ft 395 kts 330°
2026-05-08 01:33 -11.63830 -77.61375 20400 ft 399 kts 330°
2026-05-08 01:33 -11.61438 -77.62848 20805 ft 403 kts 330°
2026-05-08 01:33 -11.59029 -77.64328 21280 ft 405 kts 330°
2026-05-08 01:34 -11.56603 -77.65816 21674 ft 408 kts 329°
2026-05-08 01:34 -11.54162 -77.67313 22119 ft 411 kts 329°
2026-05-08 01:34 -11.51704 -77.68818 22567 ft 413 kts 329°
2026-05-08 01:34 -11.49233 -77.70327 22993 ft 416 kts 329°
2026-05-08 01:35 -11.46747 -77.71846 23433 ft 418 kts 329°
2026-05-08 01:35 -11.44247 -77.73375 23845 ft 419 kts 328°
2026-05-08 01:35 -11.41744 -77.74906 24198 ft 421 kts 328°
2026-05-08 01:35 -11.39227 -77.76447 24549 ft 423 kts 328°
2026-05-08 01:36 -11.36708 -77.77992 24931 ft 424 kts 327°
2026-05-08 01:36 -11.34173 -77.79545 25289 ft 425 kts 327°
2026-05-08 01:36 -11.31669 -77.81079 25664 ft 426 kts 326°
2026-05-08 01:36 -11.29127 -77.82635 26041 ft 427 kts 326°
2026-05-08 01:37 -11.26579 -77.84194 26406 ft 428 kts 327°
2026-05-08 01:37 -11.24020 -77.85758 26770 ft 429 kts 327°
2026-05-08 01:37 -11.21454 -77.87328 27116 ft 431 kts 327°
2026-05-08 01:37 -11.18880 -77.88902 27473 ft 432 kts 326°
2026-05-08 01:38 -11.16296 -77.90479 27817 ft 434 kts 326°
2026-05-08 01:38 -11.13705 -77.92062 28166 ft 435 kts 326°
2026-05-08 01:38 -11.11107 -77.93650 28518 ft 437 kts 326°
2026-05-08 01:38 -11.08498 -77.95245 28853 ft 438 kts 326°
2026-05-08 01:39 -11.05877 -77.96843 29185 ft 440 kts 327°
2026-05-08 01:39 -11.03192 -77.98380 29515 ft 443 kts 329°
2026-05-08 01:39 -11.00452 -77.99838 29839 ft 446 kts 330°
2026-05-08 01:39 -10.97674 -78.01254 30144 ft 448 kts 331°
2026-05-08 01:40 -10.94878 -78.02660 30412 ft 449 kts 330°
2026-05-08 01:40 -10.92076 -78.04078 30687 ft 450 kts 330°
2026-05-08 01:40 -10.89275 -78.05517 30960 ft 452 kts 330°
2026-05-08 01:40 -10.86469 -78.06980 31228 ft 453 kts 329°
2026-05-08 01:41 -10.83663 -78.08454 31503 ft 454 kts 329°
2026-05-08 01:41 -10.80890 -78.09913 31828 ft 454 kts 329°
2026-05-08 01:41 -10.78093 -78.11385 32228 ft 452 kts 329°
2026-05-08 01:41 -10.75306 -78.12849 32634 ft 450 kts 329°
2026-05-08 01:42 -10.72524 -78.14310 33049 ft 448 kts 329°
2026-05-08 01:42 -10.69757 -78.15763 33441 ft 447 kts 328°
2026-05-08 01:42 -10.66988 -78.17216 33825 ft 447 kts 328°
2026-05-08 01:42 -10.64231 -78.18661 34193 ft 445 kts 328°
2026-05-08 01:43 -10.61482 -78.20102 34571 ft 443 kts 328°
2026-05-08 01:43 -10.58748 -78.21532 34947 ft 441 kts 328°
2026-05-08 01:43 -10.56031 -78.22953 35331 ft 438 kts 328°
2026-05-08 01:43 -10.53326 -78.24367 35713 ft 436 kts 328°
2026-05-08 01:44 -10.50629 -78.25775 35920 ft 434 kts 328°
2026-05-08 01:44 -10.45294 -78.28569 35967 ft 429 kts 328°
2026-05-08 01:45 -10.39997 -78.31344 35968 ft 428 kts 328°
2026-05-08 01:45 -10.34734 -78.34091 35960 ft 428 kts 328°
2026-05-08 01:46 -10.29427 -78.36855 35967 ft 429 kts 328°
2026-05-08 01:46 -10.24115 -78.39636 35638 ft 428 kts 328°
2026-05-08 01:46 -10.21469 -78.41019 35401 ft 428 kts 328°
2026-05-08 01:47 -10.18823 -78.42398 35162 ft 427 kts 328°
2026-05-08 01:47 -10.16182 -78.43774 34930 ft 426 kts 328°
2026-05-08 01:47 -10.13541 -78.45150 34698 ft 426 kts 328°
2026-05-08 01:48 -10.08277 -78.47894 34245 ft 425 kts 328°
2026-05-08 01:48 -10.05648 -78.49263 34019 ft 425 kts 328°
2026-05-08 01:48 -10.03018 -78.50634 33768 ft 424 kts 328°
2026-05-08 01:48 -10.00395 -78.52002 33508 ft 423 kts 328°
2026-05-08 01:49 -9.97777 -78.53365 33249 ft 423 kts 328°
2026-05-08 01:49 -9.95192 -78.54711 32999 ft 422 kts 328°
2026-05-08 01:49 -9.92586 -78.56070 32753 ft 421 kts 328°
2026-05-08 01:49 -9.89989 -78.57427 32501 ft 419 kts 328°
2026-05-08 01:50 -9.87405 -78.58779 32256 ft 418 kts 328°
2026-05-08 01:50 -9.84824 -78.60124 32013 ft 417 kts 328°
2026-05-08 01:50 -9.82246 -78.61466 31772 ft 415 kts 328°
2026-05-08 01:50 -9.79678 -78.62800 31532 ft 414 kts 329°
2026-05-08 01:51 -9.77119 -78.64131 31293 ft 412 kts 329°
2026-05-08 01:51 -9.74573 -78.65456 31057 ft 411 kts 329°
2026-05-08 01:51 -9.72030 -78.66780 30825 ft 410 kts 329°
2026-05-08 01:51 -9.69495 -78.68098 30594 ft 409 kts 329°
2026-05-08 01:52 -9.66980 -78.69393 30330 ft 403 kts 329°
2026-05-08 01:52 -9.64478 -78.70668 29923 ft 402 kts 330°
2026-05-08 01:52 -9.61981 -78.71932 29514 ft 400 kts 330°
2026-05-08 01:52 -9.59503 -78.73186 29140 ft 397 kts 330°
2026-05-08 01:53 -9.57044 -78.74432 28762 ft 394 kts 330°
2026-05-08 01:53 -9.54602 -78.75672 28406 ft 391 kts 330°
2026-05-08 01:53 -9.52209 -78.76892 28054 ft 388 kts 330°
2026-05-08 01:53 -9.49805 -78.78118 27696 ft 385 kts 330°
2026-05-08 01:54 -9.47422 -78.79335 27338 ft 382 kts 330°
2026-05-08 01:54 -9.45054 -78.80541 26986 ft 379 kts 332°
2026-05-08 01:54 -9.42705 -78.81738 26623 ft 376 kts 331°
2026-05-08 01:54 -9.40373 -78.82925 26260 ft 374 kts 330°
2026-05-08 01:55 -9.38058 -78.84103 25903 ft 371 kts 332°
2026-05-08 01:55 -9.35762 -78.85271 25530 ft 369 kts 332°
2026-05-08 01:55 -9.33474 -78.86433 25157 ft 367 kts 332°
2026-05-08 01:55 -9.31191 -78.87593 24748 ft 370 kts 333°
2026-05-08 01:56 -9.28862 -78.88778 24213 ft 377 kts 333°
2026-05-08 01:56 -9.26512 -78.89976 23695 ft 380 kts 334°
2026-05-08 01:56 -9.24139 -78.91185 23110 ft 382 kts 334°
2026-05-08 01:56 -9.21764 -78.92395 22582 ft 382 kts 334°
2026-05-08 01:57 -9.19394 -78.93602 22059 ft 382 kts 334°
2026-05-08 01:57 -9.17021 -78.94809 21536 ft 381 kts 334°
2026-05-08 01:57 -9.14649 -78.96016 21011 ft 381 kts 335°
2026-05-08 01:57 -9.12281 -78.97219 20489 ft 381 kts 335°
2026-05-08 01:58 -9.09913 -78.98420 19967 ft 381 kts 335°
2026-05-08 01:58 -9.07544 -78.99620 19446 ft 381 kts 335°
2026-05-08 01:58 -9.05181 -79.00820 18956 ft 379 kts 335°
2026-05-08 01:58 -9.02854 -79.02003 18528 ft 377 kts 335°
2026-05-08 01:59 -9.00522 -79.03188 18115 ft 374 kts 335°
2026-05-08 01:59 -8.98204 -79.04362 17602 ft 371 kts 335°
2026-05-08 01:59 -8.95904 -79.05524 17152 ft 368 kts 335°
2026-05-08 01:59 -8.93628 -79.06675 16697 ft 364 kts 336°
2026-05-08 02:00 -8.91368 -79.07821 16219 ft 362 kts 334°
2026-05-08 02:00 -8.89130 -79.08957 15796 ft 358 kts 335°
2026-05-08 02:00 -8.86917 -79.10084 15366 ft 355 kts 335°
2026-05-08 02:00 -8.84723 -79.11203 14972 ft 351 kts 335°
2026-05-08 02:01 -8.82554 -79.12306 14566 ft 347 kts 335°
2026-05-08 02:01 -8.80405 -79.13397 14173 ft 344 kts 334°
2026-05-08 02:01 -8.78279 -79.14476 13776 ft 341 kts 335°
2026-05-08 02:01 -8.76169 -79.15543 13314 ft 338 kts 334°
2026-05-08 02:02 -8.74078 -79.16601 12776 ft 334 kts 334°
2026-05-08 02:02 -8.72005 -79.17650 12117 ft 332 kts 334°
2026-05-08 02:02 -8.69944 -79.18694 11486 ft 330 kts 334°
2026-05-08 02:02 -8.67896 -79.19733 10859 ft 329 kts 334°
2026-05-08 02:03 -8.66548 -79.20417 10468 ft 327 kts 333°
2026-05-08 02:03 -8.63843 -79.21786 9754 ft 322 kts 333°
2026-05-08 02:03 -8.61910 -79.22762 9483 ft 309 kts 333°
2026-05-08 02:03 -8.59999 -79.23727 8939 ft 306 kts 333°
2026-05-08 02:04 -8.58083 -79.24675 8388 ft 305 kts 338°
2026-05-08 02:04 -8.56051 -79.25188 7963 ft 299 kts 356°
2026-05-08 02:04 -8.54001 -79.25074 7501 ft 294 kts 13°
2026-05-08 02:04 -8.52043 -79.24498 7053 ft 292 kts 19°
2026-05-08 02:05 -8.50103 -79.23893 6603 ft 291 kts 18°
2026-05-08 02:05 -8.48156 -79.23292 6155 ft 294 kts 18°
2026-05-08 02:05 -8.46210 -79.22695 5754 ft 294 kts 18°
2026-05-08 02:05 -8.44259 -79.22093 5460 ft 290 kts 18°
2026-05-08 02:06 -8.42338 -79.21499 5124 ft 287 kts 18°
2026-05-08 02:06 -8.40445 -79.20913 4680 ft 283 kts 19°
2026-05-08 02:06 -8.38572 -79.20333 4273 ft 278 kts 19°
2026-05-08 02:06 -8.36769 -79.19777 4105 ft 263 kts 18°
2026-05-08 02:07 -8.35068 -79.19252 3987 ft 248 kts 19°
2026-05-08 02:07 -8.33465 -79.18757 3885 ft 234 kts 18°
2026-05-08 02:07 -8.31974 -79.18300 3774 ft 218 kts 20°
2026-05-08 02:07 -8.30605 -79.17879 3713 ft 195 kts 19°
2026-05-08 02:08 -8.29364 -79.17492 3608 ft 177 kts 19°
2026-05-08 02:08 -8.28242 -79.17141 3528 ft 160 kts 21°
2026-05-08 02:08 -8.27200 -79.16815 3480 ft 156 kts 23°
2026-05-08 02:08 -8.26169 -79.16491 3354 ft 154 kts 21°
2026-05-08 02:09 -8.25144 -79.16171 3190 ft 154 kts 21°
2026-05-08 02:09 -8.24124 -79.15852 2997 ft 153 kts 20°
2026-05-08 02:09 -8.23113 -79.15535 2801 ft 153 kts 20°
2026-05-08 02:09 -8.22095 -79.15217 2608 ft 153 kts 22°
2026-05-08 02:10 -8.21078 -79.14899 2413 ft 154 kts 21°
2026-05-08 02:10 -8.20048 -79.14577 2206 ft 156 kts 21°
2026-05-08 02:10 -8.19015 -79.14254 2017 ft 153 kts 18°
2026-05-08 02:10 -8.18017 -79.13942 1820 ft 152 kts 19°
2026-05-08 02:11 -8.17009 -79.13627 1636 ft 152 kts 19°
2026-05-08 02:11 -8.16003 -79.13313 1445 ft 151 kts 20°
2026-05-08 02:11 -8.15006 -79.13001 1246 ft 148 kts 18°
2026-05-08 02:11 -8.14030 -79.12696 1044 ft 146 kts 18°
2026-05-08 02:12 -8.13375 -79.12493 907 ft 146 kts 18°
2026-05-08 02:12 -8.12090 -79.12094 624 ft 146 kts 19°
2026-05-08 02:12 -8.11115 -79.11784 430 ft 147 kts 20°
2026-05-08 02:12 -8.10136 -79.11480 228 ft 147 kts 19°
2026-05-08 02:13 -8.09182 -79.11186 67 ft 143 kts 20°
2026-05-08 02:13 -8.08604 -79.11000 87 ft 118 kts 17°
2026-05-08 02:13 -8.07972 -79.10801 106 ft 73 kts 17°
2026-05-08 02:13 -8.07624 -79.10693 117 ft 33 kts 18°
2026-05-08 02:14 -8.07510 -79.10615 120 ft 12 kts 56°
2026-05-08 02:14 -8.07473 -79.10641 122 ft 11 kts 234°
2026-05-08 02:14 -8.07560 -79.10673 117 ft 16 kts 198°
2026-05-08 02:14 -8.07679 -79.10710 115 ft 20 kts 197°
2026-05-08 02:15 -8.07827 -79.10758 111 ft 25 kts 197°
2026-05-08 02:15 -8.08011 -79.10814 105 ft 30 kts 197°
2026-05-08 02:15 -8.08215 -79.10879 100 ft 30 kts 197°
2026-05-08 02:15 -8.08392 -79.10933 93 ft 19 kts 198°
2026-05-08 02:16 -8.08469 -79.10932 91 ft 10 kts 129°
2026-05-08 02:16 -8.08499 -79.10882 91 ft 6 kts 152°
2026-05-08 02:16 -8.08530 -79.10872 92 ft 3 kts 133°
2026-05-08 02:16 -8.08537 -79.10853 95 ft 3 kts 108°
2026-05-08 02:17 -8.08542 -79.10839 92 ft 1 kts 107°
2026-05-08 02:17 -8.08543 -79.10836 93 ft 0 kts 108°
2026-05-08 02:29 -8.08542 -79.10836 92 ft 0 kts 108°